ARIANE 3 DEB, 27026

Orbit data source: Space-Track

ARIANE 3 DEB, 27026 is space debris in HEO originally from a launch on Thu, 08 Sep 1988 UTC launched from the French Guiana (FRGUI). Debris objects in space refer to the collection of defunct objects orbiting the Earth. Examples of debris include non-operational satellites, rocket bodies, and fragments generated from explosions, collisions, or faulty payload assembly.

Loading next visibility...
Identifier
27026, 1988-081J
Orbit
HEO
Country
Flag of FRFR
Related business
Manufacturer
Unknown
Mission
Spacecraft
Bus & Motor
Unknown
Mass
Unknown
Launch date (UTC)
1988-09-08 (38 years ago)
Launch vehicle
Unknown
Launch site
French Guiana (FRGUI)
Object type
Payload
Rocket body
Debris
Shape & HBR
Unknown shape, 1.1 m
Radar Cross Section
Medium (>0.1 m² and <1 m²)

Expand to show TLE details & history
Last TLE update: 9 hours ago

TLE from 9 hours ago
0 ARIANE 3 DEB
1 27026U 88081J   26072.42500221  .00001755  00000-0  12243-1 0  9996
2 27026   7.4191 223.8129 7110070 197.2379 196.2918  2.35756853264149
Epoch: 2026-03-13T10:12Z
TLE epoch observation values (Epoch: 2026-03-13T10:12:00.190Z)
Latitude
2.67959°
Longitude
-79.25843°
Altitude
34,163.395 km
Speed
1.717 km/s
True Right ascension
16h 19m 12s
True Declination
2° 40' 36"
Sunlit
Object was in daylight at epoch
Visualization orbit readout
Latitude
Unknown
Longitude
Unknown
Altitude
Unknown
Speed
Unknown
Apparent Right ascension
Unknown
Apparent Declination
Unknown
Sunlit
N/A
Visualization observer readout
Local Sidereal Time
23:57:16
Azimuth
Unknown
Elevation
Unknown
Doppler factor
Unknown
Orbital elements
Apogee altitude
34,432.371 km
Perigee altitude
514.851 km
Semi-major axis
23,851.748 km
Eccentricity
0.71101
Inclination
7.4191°
RAAN
223.8129°
Arg. of periapsis
197.2379°
True anomaly
183.92829°
Mean anomaly
196.2918°
Eccentric anomaly
189.54005°
Mean motion
0.5892 °/min
Orbital period
611 mins
BSTAR
0.012243
Loading maneuver chart data...
Computing Atmospheric mass density...
Loading historical data...
Loading historical data...
Loading historical data...
Loading historical data...
Loading historical data...
Loading historical data...
Loading historical data...

Documentation

Showing up to 5 results
|